[Iaude] MPEC E47: 2024 EE1 [a=1.05,e=0.19,i=6.6,H=26.0]
    mpec at cfa.harvard.edu 
    mpec at cfa.harvard.edu
       
    Tue Mar  5 00:07:50 EST 2024
    
    
  
M.P.E.C. 2024-E47                                 Issued 2024 March 5, 05:06 UT
     The Minor Planet Electronic Circulars contain information on unusual
         minor planets, routine data on comets and natural satellites,
         and occasional editorial announcements.  They are published
    on behalf of Division F of the International Astronomical Union by the
          Minor Planet Center, Smithsonian Astrophysical Observatory,
                          Cambridge, MA 02138, U.S.A.
			  
             Prepared using the Tamkin Foundation Computer Network
                              MPC at CFA.HARVARD.EDU
            URL https://www.minorplanetcenter.net/    ISSN 1523-6714
                                    2024 EE1                                    
Observations:
     K24E01E* C2024 03 02.31897210 57 15.068+16 52 46.69         21.58wXEE047F51
     K24E01E  C2024 03 02.34350510 57 12.012+16 54 37.07         21.06wXEE047F51
     K24E01E  C2024 03 02.35581110 57 10.446+16 55 32.35         21.50wXEE047F51
     K24E01E  C2024 03 02.46432710 56 56.112+17 03 27.81         20.87GVEE047F52
     K24E01E  C2024 03 02.46497510 56 56.016+17 03 30.96         21.09GVEE047F52
     K24E01E KC2024 03 03.17703210 55 57.83 +17 52 40.0          21.1 GVEE047H21
     K24E01E KC2024 03 03.18262710 55 57.18 +17 53 03.0          21.2 GVEE047H21
     K24E01E KC2024 03 03.18542310 55 56.86 +17 53 14.3          21.6 GVEE047H21
     K24E01E KC2024 03 03.18822010 55 56.53 +17 53 25.8          21.6 GVEE047H21
     K24E01E KC2024 03 03.24988210 55 51.568+17 57 47.48         21.40GVEE047I52
     K24E01E KC2024 03 03.25206510 55 51.319+17 57 56.63         21.45GVEE047I52
     K24E01E KC2024 03 03.25644010 55 50.783+17 58 14.09         21.43GVEE047I52
     K24E01E  C2024 03 05.17694010 53 20.507+19 56 57.16         20.9 GVEE047H01
     K24E01E  C2024 03 05.18202910 53 19.996+19 57 15.03         20.8 GVEE047H01
     K24E01E  C2024 03 05.19486210 53 18.692+19 58 00.04         20.9 GVEE047H01
     K24E01E  C2024 03 05.20096610 53 18.050+19 58 21.65         21.1 GVEE047H01
Observer details:
F51 Pan-STARRS 1, Haleakala.  Observers J. Herman, T. Lowe, P. Minguez, A.
    Schultz, I. Smith.  Measurers K. Chambers, T. de Boer, J. Fairlamb, H.
    Gao, M. Huber, C.-C. Lin, E. Magnier, Y. Ramanjooloo, R. Wainscoat, R.
    Weryk.  1.8-m Ritchey-Chretien + CCD.
F52 Pan-STARRS 2, Haleakala.  Observers J. Herman, T. Lowe, P. Minguez, A.
    Schultz, I. Smith.  Measurers K. Chambers, T. de Boer, J. Fairlamb, H.
    Gao, M. Huber, C.-C. Lin, E. Magnier, Y. Ramanjooloo, R. Wainscoat, R.
    Weryk.  1.8-m Ritchey-Chretien + CCD.
H01 Magdalena Ridge Observatory, Socorro.  Observers W. H. Ryan, E. V. Ryan.
    Measurer W. H. Ryan.  2.4-m f/8.9 Ritchey-Chretien + CCD.
H21 Astronomical Research Observatory, Westfield.  Observer R. Holmes.
    Measurers T. Linder, R. Holmes, L. Horn.  0.76-m f/3.0 astrograph + CCD.
I52 Steward Observatory, Mt. Lemmon Station.  Observers T. Beuden, J. K.
    Hogan.  Measurers T. Beuden, V. F. Carvajal, D. Fay, J. B. Fazekas, D. C.
    Fuls, A. R. Gibbs, A. D. Grauer, H. Groeller, J. K. Hogan, R. A. Kowalski,
    S. M. Larson, G. J. Leonard, D. Rankin, R. L. Seaman, F. C. Shelly, K. W.
    Wierzchos.  1.0-m prime focus + CCD.
Orbital elements:
2024 EE1                                                 Earth MOID = 0.0132 AU
Epoch 2024 Mar. 31.0 TT = JDT 2460400.5                 MPC                     
M 109.73934              (2000.0)            P               Q                  
n   0.91044411     Peri.  260.73697     +0.55170542     -0.83269298             
a   1.0543072      Node   155.59407     +0.80314639     +0.51509955             
e   0.1905463      Incl.    6.58243     +0.22489335     +0.20321136             
P   1.08           H   26.02          G   0.15           U   7                  
Residuals in seconds of arc
240302 F51  0.3+  0.1-    240303 H21  0.1-  0.2+    240305 H01  0.0   0.1+
240302 F51  0.0   0.0     240303 H21  0.1+  0.1-    240305 H01  0.0   0.0
240302 F51  0.1-  0.2+    240303 H21  0.1+  0.1-    240305 H01  0.1+  0.1-
240302 F52  0.0   0.1-    240303 I52  0.1-  0.1-    240305 H01  0.0   0.1+
240302 F52  0.1-  0.2+    240303 I52  0.1+  0.0
240303 H21  0.1-  0.3+    240303 I52  0.0   0.4-
Ephemeris:
2024 EE1                 a,e,i = 1.05, 0.19, 7                   q = 0.8534
Date    TT    R. A. (2000) Decl.     Delta      r    Elong.  Phase     V
2024 02 04    13 24 37.9 -67 08 49   0.04800 0.9820    84.2    93.0    22.7
...
2024 02 19    11 25 01.6 -09 38 09   0.04802 1.0306   151.1    27.6    20.7
...
2024 02 27    11 04 33.5 +10 30 14   0.06679 1.0564   173.0     6.6    20.8
...
2024 03 04    10 54 47.4 +18 47 02   0.08559 1.0753   167.6    11.4    21.5
2024 03 05    10 53 29.8 +19 47 18   0.08900 1.0784   166.1    12.8    21.7
2024 03 06    10 52 17.3 +20 42 29   0.09249 1.0815   164.6    14.1    21.8
...
2024 03 12    10 46 44.1 +24 46 35   0.1148  1.0997   156.3    21.3    22.6
...
2024 03 20    10 43 27.4 +27 31 17   0.1477  1.1230   147.3    28.6    23.4
...
2024 04 04    10 47 02.5 +28 21 43   0.2171  1.1625   134.4    37.9    24.6
A. U. Tomatic                (C) Copyright 2024 MPC           M.P.E.C. 2024-E47
    
    
More information about the Iaude
mailing list